{"data":{"norad_id":45206,"intl_designator":"2020-012AE","name":"STARLINK-1209","alt_names":[],"object_type":"PAYLOAD","status":"ACTIVE","operator":null,"country":"US","launch_date":"2020-02-17","launch_site_code":"AFETR","launch_vehicle":null,"mission":null,"orbit_class":"UNKNOWN","rcs_meters":null,"size_class":null,"mass_kg":null,"dimensions":null,"purposes":["comms"],"wikipedia_slug":null,"has_3d_model":false,"image_url":null,"decayed_at":null,"tle_current":{"epoch":"2026-05-24T21:24:10.783008Z","epoch_age_seconds":87584,"freshness":"FRESH","line1":"1 45206U 20012AE  26144.89179147  .00101787  00000+0  10465-2 0  9996","line2":"2 45206  53.0407 323.4120 0009169 176.7191 183.3884 15.64062063346797","mean_motion":15.64062063,"eccentricity":0.0009169,"inclination_deg":53.0407,"raan_deg":323.412,"arg_perigee_deg":176.7191,"mean_anomaly_deg":183.3884,"bstar":0.0010465,"rev_number":34679,"period_min":92.067957791775,"perigee_km":369.74478949934,"apogee_km":382.13041150174,"semimajor_km":6754.0746005005,"source":"CELESTRAK","updated_at":"2026-05-25T13:38:16.383459Z"}}}